Wichita Mid Continent Airport
KICT : rendu visible

Aérodrome :











RETROUVEZ-NOUS SUR...

 
LOGIN :

S'inscrire | Disclaimer

   EN    FR    IT 

 









Légende :    VFR   VFR Marginal   IFR   IFR Intensif   IFR Très Intensif
Visi : 
Plafond : 
>= 8 km
>= 3000ft
5 à 8 km
1000 à 3000 ft
1500m à 5 km
500 à 1000 ft
800 à 1500m
200 à 500 ft
< 800m
< 200 ft
Symboles :   Orages  Brouillard  Fortes neiges  Fortes précipitations  Vent > 20 kt






- Altitude de l'aérodrome : 1333 ft
- Code IATA : ICT


KICT - Wichita Mid Continent

DERNIER METAR :
  • 011553Z 22007KT 10SM FEW220 M04/M09 A3036 RMK AO2 SLP302 T10391094

METARs EXPIRÉS :
  • 011453Z 18003KT 10SM FEW220 M07/M11 A3033 RMK AO2 SLP292 T10721106 50002
  • 011353Z 00000KT 10SM CLR M09/M13 A3033 RMK AO2 SLP294 T10941128

TAF KICT
Valide du 01 à 12h jusqu'au 02 à 12h UTC


011122Z 0112/0212 20005KT P6SM SCT250
FM011700 20007KT P6SM SCT250
FIR KZKC / Amérique du Nord



MET'MAP, la Météo Aéronautique d'un coup d'oeil ! - Copyright ORBIFLY Décembre 2007 - Disclaimer

ORBIFLY MET'MAP TEAM :

Programmation & Développement : Alexandra Zaïnal
Sur une idée originale de : Baudouin d'Aumeries
Soutien technique & logistique : Manuel Goepfert
Assistance : Marc-Olivier Méhu




SOURCES & CREDITS :

   NOAA       Earth
Advisory